www.pogodaiklimat.ru
ПОГОДА в Эшленде
Время
и дата
22:56 05.02
23:56 05.02
00:56 06.02
01:56 06.02
02:56 06.02
03:56 06.02
04:56 06.02
05:56 06.02
06:56 06.02
07:56 06.02
08:11 06.02
08:56 06.02
09:56 06.02
10:56 06.02
11:56 06.02
12:56 06.02
13:56 06.02
14:56 06.02
15:56 06.02
16:56 06.02
17:56 06.02
18:56 06.02
19:56 06.02
20:56 06.02
21:56 06.02
22:56 06.02
23:56 06.02
00:56 07.02
01:56 07.02
02:56 07.02
03:56 07.02
04:56 07.02
05:56 07.02
06:56 07.02
07:56 07.02
08:56 07.02
09:56 07.02
10:56 07.02
11:56 07.02
12:56 07.02
13:56 07.02
14:56 07.02
15:56 07.02
16:56 07.02
17:56 07.02
18:56 07.02
19:56 07.02
20:56 07.02
Ветер
(напр.,м/с)
Видим. Явления Облачность Т
(С)
Тd
(С)
f
(%)
Тe
(С)
Тes
(С)
Комфортность P
(гПа)
Po
(гПа)
Тmin
(С)
Tmax
(С)
R
(мм)
R24
(мм)
S
(см)
штиль 0 16 км 5/5 1500 м +4.4 +2.8 89 +3 +3 1018.5 998.4
штиль 0 16 км 2/2 1650 м +2.8 +2.2 96 +2 +2 1018.7 998.7
штиль 0 16 км 10/10 1650 м +2.8 +2.8 100 +1 +1 1018.8 998.7 +1.7 +11.7
штиль 0 16 км ясно +2.8 +2.2 96 +2 +2 1019.1 999.1
штиль 0 16 км 2/0 2100 m
[Ac]
+2.0 1020.1 1000.1
нст 3 16 км ясно +5.0 +2.2 82 +2 +2 1020.3 1000.1
СЗ 2 16 км ясно +3.3 +1.7 89 0 0 1020.9 1000.7
штиль 0 16 км ясно +2.8 +0.6 85 +2 +2 1022.3 1002.1
СЗ 2 16 км ясно +1.7 0.0 88 -2 -2 1023.5 1003.4 +1.1 +5.0
нст 2 16 км 2/2 630 м +1.7 0.0 88 -2 -2 1024.8 1004.4
С 3 16 км 8/8 630 м +2.0 0.0 87 -2 -2 1004.7
С 2 16 км 10/10 510 м +1.7 0.0 88 -2 -2 1025.6 1005.0
штиль 0 16 км 10/10 510 м +2.2 0.0 85 +1 +1 1026.5 1006.0
штиль 0 16 км 10/10 570 м +2.2 -1.1 79 +1 +1 1027.2 1006.7
СВ 2 16 км 10/10 630 м +3.9 -1.1 70 +1 +1 1027.1 1006.7
штиль 0 16 км 5/5 750 м +5.0 -1.7 62 +4 +9 1026.2 1005.7 +1.1 +5.0
З 2 16 км ясно +6.1 -1.1 60 +4 +12 1025.7 1005.0
штиль 0 16 км ясно +6.7 -2.2 53 +6 +15 опасность
простуды
1025.3 1004.7
нст 2 16 км ясно +8.3 -1.7 49 +7 +11 1024.6 1004.4
ЮВ 2 16 км ясно +6.7 -2.2 53 +5 +7 1024.4 1004.0
штиль 0 16 км ясно +5.6 -2.8 55 +5 +6 1024.7 1004.4
штиль 0 16 км ясно +3.3 -1.7 70 +3 +3 1024.6 1004.4 +2.8 +8.3
штиль 0 16 км ясно +1.1 -1.1 85 0 0 1024.6 1004.0
штиль 0 16 км ясно -1.7 -3.9 85 -3 -3 1024.4 1003.7
В 2 16 км ясно -1.7 -2.2 96 -6 -6 1023.8 1003.4
В 2 16 км ясно -1.7 -2.8 92 -6 -6 1023.0 1002.4
штиль 0 16 км ясно -2.2 -2.2 100 -4 -4 1023.2 1002.7
штиль 0 16 км ясно -2.8 -3.3 96 -4 -4 1022.4 1001.7 -2.8 +3.3
штиль 0 16 км ясно -1.7 -1.7 100 -3 -3 1021.9 1001.4
штиль 0 16 км ясно -1.7 -2.2 96 -3 -3 1022.0 1001.7
штиль 0 16 км ясно -1.1 -1.1 100 -3 -3 1021.7 1001.4
штиль 0 16 км ясно -1.7 -2.2 96 -3 -3 1022.3 1002.1
В 2 16 км ясно -2.8 -3.3 96 -7 -7 1022.6 1002.1
нст 2 16 км ясно -1.7 -1.7 100 -6 -6 1022.7 1002.1 -2.8 -1.1
В 2 16 км ясно 0.0 0.0 100 -4 -4 1022.5 1002.1
нст 2 16 км ясно +1.7 +1.7 100 -2 -2 1023.0 1002.4
В 3 16 км ясно +5.0 +0.6 73 +2 +3 1022.6 1002.1
штиль 0 16 км ясно +8.9 +0.6 56 +9 +14 1022.5 1002.1
ЮЗ 5
{9}
16 км 2/2 1950 м +15.0 +1.7 41 +14 +16 1022.1 1001.7
ЮЗ 6
{8}
16 км ясно +17.2 +2.8 38 +16 +19 1020.8 1000.7 -1.1 +17.2
ЮЗ 7
{9}
16 км ясно +17.2 +3.3 39 +16 +18 1019.9 999.7
Ю 6
{8}
16 км ясно +18.3 +3.9 38 +18 +20 1019.3 999.1
ЮЗ 5
{8}
16 км ясно +18.3 +3.3 37 +18 +20 1019.1 999.1
ЮЗ 5
{8}
16 км 8/2 1950 m
[Ac]
+18.3 +3.9 38 +18 +18 1019.4 999.4
ЮЗ 3 16 км 8/0 2700 m
[Ac]
+17.8 +4.4 41 +18 +18 1020.0 1000.1
З 2 16 км 10/10 1800 м +16.1 +5.0 48 +16 +16 1021.0 1000.7 +16.1 +18.9
З 3 16 км 10/10 1800 м +15.6 +6.1 53 +15 +15 1021.4 1001.4
нст 3 16 км 10/0 2100 m
[Ac]
+15.6 +7.2 57 +15 +15 1021.5 1001.4
Местоположение метеостанции Ashland Regional Airport: широта 38.5545 долгота -82.7380 высота над уровнем моря 165 м.
В архиве по умолчанию представлена погода в Эшленде за последние 1-2 суток. Обновление информации о фактической погоде в базе происходит ежечасно! Архивные данные за месяц целиком и за предыдущие месяцы Вы можете получить, выбрав интересующий диапазон дат из раскрывающегося списка и нажав кнопку "Ввод!".
Внимание! Архив погоды МЕТАР в базе сайта по станциям, не включенным в климатический монитор, хранится не более 60 дней. Нет смысла пытаться выбрать более раннюю дату.
*Определитесь, кто Вы:
Внимание! Время в таблицах - местное (без учета летнего времени). Для получения всемирного времени необходимо вычесть поправку, которая равна -5 ч.
Смотрите также архив погоды в соседних городах и на ближайших метеорологических станциях:
Партнеры нашего сайта:      
Пояснения к столбцам:
  • Ветер - указаны скорость ветра в м/с - средняя за 10 мин, порывы в срок и между сроками (в фигурных скобках) и направление, откуда дует ветер: С - северный,
  • СВ - северо-восточный, В - восточный, ЮВ - юго-восточный, Ю - южный, ЮЗ - юго-западный, З - западный, СЗ - северо-западный.
  • Видимость - горизонтальная дальность видимости в метрах или километрах. При видимости от 1 до 10 км при отсутствии осадков обычно наблюдается дымка, при ухудшении видимости до 1 км и менее - туман. В сухую погоду видимость может ухудшаться дымом, пылью или мглою.
  • Явления - указаны атмосферные явления, наблюдавшиеся в срок или в последний час перед сроком; фигурными скобками обозначены явления, наблюдавшиеся между сроками (за 1-3 часа до срока); квадратными скобками обозначены град или гололедные отложения с указанием их диаметра в мм.
  • Облачность - указаны через наклонную черту общая и нижняя облачность в баллах и высота нижней границы облаков в метрах; квадратными скобками обозначены формы облаков: Ci - перистые, Cs - перисто-слоистые, Cc - перисто-кучевые, Ac - высококучевые, As - высокослоистые, Sc - слоисто-кучевые, Ns - слоисто-дождевые, Cu - кучевые, Cb - кучево-дождевые. Подробнее классификацию облаков см. в Атласе облаков (PDF).
  • T - Температура воздуха - температура, измеренная на высоте 2 м над землей.
  • Td - Температура точки росы - температура, при понижении до которой содержащийся в воздухе водяной пар достигнет насыщения.
  • f - Относительная влажность воздуха - влажноcть воздуха, измеренная на высоте 2 м над землей.
  • Te - Эффективная температура - температура, которую ощущает одетый по сезону человек в тени. Характеристика душности погоды. При расчете учитывается влияние влажности воздуха и скорости ветра на теплоощущения человека.
  • Tes - Эффективная температура на солнце - температура, которую ощущает человек, с поправкой на солнечный нагрев. Характеристика знойности погоды. Зависит от высоты солнца над горизонтом, облачности и скорости ветра. Ночью, в пасмурную погоду, а также при ветре 12 м/с и более поправка равна нулю.
  • P - Атмосферное давление - приведенное к уровню моря атмосферное давление.
  • Po - Атмосферное давление - измеренное на уровне метеостанции атмосферное давление.
  • Tmin - Минимальная температура - минимум температуры воздуха на высоте 2 м над землей.
  • Tmax - Максимальная температура - максимум температуры воздуха на высоте 2 м над землей.
  • R - Количество осадков - Количество выпавших осадков за период времени, мм. При наведении курсора мыши на число - период времени, за который выпало указанное количество осадков.
  • R24 - Количество осадков - Количество выпавших осадков за 24 часа, мм.
  • S - Снежный покров - Высота снежного покрова, см. При наведении курсора мыши на число - состояние снежного покрова и степень покрытия местности в баллах.